This is the latest recevied weather packets stored in our database for station/object N7WSS. If no packets are shown the sender has not sent any weather packets the latest 10 day(s).
| Time | Temp. | Humidity | Pressure | Rain* | Wind** | Luminosity | Snow |
|---|---|---|---|---|---|---|---|
| 1777652381 | 21.67° C | 41% | 1012.1 hPa | 0 mm | - | - | - |
| 1777652078 | 22.22° C | 41% | 1011.9 hPa | 0 mm | - | - | - |
| 1777651774 | 21.67° C | 42% | 1011.8 hPa | 0 mm | - | - | - |
| 1777651471 | 21.67° C | 40% | 1011.7 hPa | 0 mm | - | - | - |
| 1777651169 | 21.67° C | 43% | 1011.9 hPa | 0 mm | - | - | - |
| 1777650865 | 21.67° C | 44% | 1011.8 hPa | 0 mm | - | - | - |
| 1777650562 | 21.11° C | 45% | 1011.7 hPa | 0 mm | - | - | - |
| 1777650260 | 21.67° C | 47% | 1011.6 hPa | 0 mm | - | - | - |
| 1777649956 | 21.11° C | 47% | 1011.6 hPa | 0 mm | - | - | - |
| 1777649654 | 20.56° C | 48% | 1011.6 hPa | 0 mm | - | - | - |
| 1777649349 | 21.11° C | 48% | 1011.5 hPa | 0 mm | - | - | - |
| 1777649047 | 20.56° C | 49% | 1011.5 hPa | 0 mm | - | - | - |
| 1777648745 | 20.56° C | 49% | 1011.4 hPa | 0 mm | - | - | - |
| 1777648441 | 19.44° C | 52% | 1011.4 hPa | 0 mm | - | - | - |
| 1777648137 | 18.89° C | 54% | 1011.5 hPa | 0 mm | - | - | - |
| 1777647833 | 18.89° C | 56% | 1011.4 hPa | 0 mm | - | - | - |
| 1777647530 | 18.89° C | 54% | 1011.2 hPa | 0 mm | - | - | - |
| 1777647227 | 18.89° C | 55% | 1011.2 hPa | 0 mm | - | - | - |
| 1777646924 | 18.33° C | 57% | 1011.1 hPa | 0 mm | - | - | - |
| 1777646619 | 18.33° C | 57% | 1011.3 hPa | 0 mm | - | - | - |
| 1777646316 | 17.78° C | 58% | 1011.1 hPa | 0 mm | - | - | - |
| 1777646012 | 17.78° C | 59% | 1011.2 hPa | 0 mm | - | - | - |
| 1777645709 | 17.22° C | 60% | 1011.2 hPa | 0 mm | - | - | - |
| 1777645406 | 17.22° C | 60% | 1011.2 hPa | 0 mm | - | - | - |
| 1777645101 | 17.22° C | 61% | 1011.1 hPa | 0 mm | - | - | - |
* Rain latest hour (hover to see other rain measurements)
** Current wind speed in m/s (hover to see current wind gust speed)